SCP
0 0 0 0 0 0 0 0 0 0 0 0 0 0 0 0 0 0 0 0 0 0 0 0 0 0 0 0 0 0 0 0
0 0 0 -0 -0 -0 -0 0 0 0 0 0 0 0 0 0 0 0 0 0 0 0 0 0 0 0 0 0 0 0 0 0
0 0 -0 -0 0 -0 0 0 0 0 0 0 0 0 0 0 0 0 0 0 0 0 0 0 0 0 0 0 0 0 0 0
0 0 -0 0 0 0 0 -0 -0 0 0 0 0 0 0 0 0 0 0 0 0 0 0 0 0 0 0 0 0 0 0 0
0 0 0 0 0 -0 0 0 0 0 0 0 0 0 0 0 0 0 0 0 0 0 0 0 0 0 0 0 0 0 0 0
0 0 0 0 0 0 0 0 0 0 0 0 0 0 0 0 0 0 0 0 0 0 0 0 0 0 0 0 0 0 0 0
0 0 0 0 0 0 0 -0 -0 -0 -0 0 0 0 0 0 0 0 0 0 -0 0 0 0 0 0 0 0 0 0 0 0
0 0 0 0 0 0 0 0 0 0 -0 0 0 0 0 0 0 0 -0 -0 0 0 0 0 0 0 0 0 0 0 0 0
0 0 0 0 0 0 0 0 0 0 0 0 0 0 0 0 0 -0 -0 0 0 0 0 0 0 0 0 0 0 0 0 0
0 0 0 0 0 0 0 0 0 0 0 0 0 0 0 -0 0 0 0 0 0 0 0 0 0 0 0 0 0 0 0 0
0 0 0 0 0 0 -0 -0 0 0 0 0 0 0 0 0 0 0 0 0 0 0 0 0 0 0 0 0 0 0 0 0
0 0 0 0 0 0 0 0 0 0 0 0 0 0 0 0 0 0 0 0 0 0 0 0 0 0 0 0 0 0 0 0
0 0 0 0 0 0 0 0 0 0 0 0 0 0 0 0 0 0 0 0 0 0 0 0 0 0 0 0 0 0 0 0
-0 0 0 0 0 0 0 0 0 0 0 0 0 0 0 0 0 0 0 0 0 0 0 0 0 0 0 0 0 0 0 0
-0 -0 0 0 0 -0 0 0 0 0 -0 0 0 0 0 0 0 0 0 0 0 0 0 0 0 0 0 0 0 0 0 0
0 0 0 0 0 0 0 0 0 0 -0 -0 -0 0 0 0 0 0 0 0 0 0 0 0 0 0 0 0 0 0 0 0
-0 -0 -0 0 -0 -0 0 0 -0 -0 0 0 0 -0 -0 0 0 -0 -0 -0 -0 -0 -0 -0 -0 -0 -0 0 0 0 0 0
0 -0 0 0 -0 -0 -0 -0 -0 0 -0 0 -0 -0 -0 -0 -0 -0 -0 -0 -0 -0 -0 -0 -0 0 0 0 0 0 0 0
0 0 0 0 0 0 0 0 -0 -0 0 -0 0 0 0 -0 -0 0 0 0 0 -0 -0 -0 -0 0 0 0 0 0 0 0
0 0 0 0 0 0 0 0 -0 -0 -0 -0 -0 -0 -0 -0 0 0 0 0 0 0 0 0 0 0 0 0 0 0 0 0
Wind_Speed_500mb
75 74 73 71 71 71 71 76 81 82 79 84 82 85 91 88 88 87 84 91 85 74 71 88 98 92 90 88 89 92 85 81
72 73 75 73 73 73 72 70 72 74 78 82 83 86 91 90 90 83 83 87 94 89 77 95 93 95 92 94 96 87 81 81
75 77 82 82 80 77 72 67 63 66 72 79 81 81 81 85 90 82 86 85 88 84 83 97 97 101 97 96 101 91 86 84
75 78 83 88 86 82 74 69 65 59 62 69 78 80 84 85 92 95 72 95 88 82 87 99 112 107 106 106 93 94 83 83
76 80 84 91 92 87 81 76 63 52 49 57 66 75 79 87 89 103 76 84 89 85 96 94 107 108 112 106 96 91 84 83
77 80 86 94 95 92 85 76 62 54 39 42 65 71 73 77 85 103 78 75 81 86 99 105 106 108 104 99 88 88 81 80
78 79 82 88 94 97 91 80 75 71 45 0 28 41 55 67 76 94 74 78 89 93 105 103 105 98 93 92 86 80 73 75
75 77 77 85 92 101 93 86 85 83 70 36 29 33 33 44 53 69 78 76 110 106 110 95 81 74 86 86 81 72 76 72
70 72 76 83 87 101 100 93 94 89 92 69 58 48 50 53 50 59 60 92 102 85 74 76 68 66 65 63 65 72 69 67
60 63 71 78 85 94 98 102 103 102 104 95 82 62 59 58 59 69 92 81 98 98 94 98 78 57 59 60 57 61 63 58
59 62 66 71 80 87 89 101 107 103 100 91 93 110 99 93 99 106 108 104 109 94 79 81 68 59 58 58 61 52 57 48
54 62 65 68 75 82 82 93 93 90 89 106 114 109 105 108 111 108 119 127 120 117 101 93 76 61 49 52 45 41 49 53
53 59 63 67 72 78 85 86 90 92 94 99 102 99 99 99 102 109 105 100 113 110 105 96 86 74 64 56 49 40 39 42
47 52 58 64 70 75 78 79 85 87 96 97 96 96 100 102 103 100 98 98 91 90 90 87 72 69 61 56 55 47 49 42
41 47 55 61 63 66 66 67 74 81 85 87 94 97 98 100 99 96 92 87 87 84 79 71 66 61 49 43 40 38 37 37
35 42 47 53 58 61 63 63 67 70 75 79 81 84 88 91 88 88 83 79 80 75 69 66 67 59 49 44 39 33 29 26
29 33 38 43 50 56 59 61 63 67 70 69 69 70 72 72 72 75 73 70 71 69 66 62 53 45 43 40 37 33 29 25
23 27 32 39 43 46 52 55 57 62 61 60 60 60 59 58 60 61 57 57 61 59 57 54 48 44 40 36 33 31 26 32
15 20 24 29 35 42 46 48 49 50 51 52 52 51 50 48 47 45 47 48 50 50 47 45 40 36 34 32 30 33 32 31
12 12 17 22 26 31 36 39 40 41 43 45 44 44 43 41 41 40 38 40 41 36 33 34 34 32 31 27 27 29 28 27
Wind_Direction_500mb
326 326 324 321 319 316 309 300 292 284 274 269 263 254 250 251 251 240 241 233 232 236 236 222 216 221 222 228 218 218 217 222
323 329 331 330 328 323 317 307 294 283 275 270 263 257 247 244 247 235 234 237 235 235 238 222 214 217 220 220 218 211 214 216
330 334 338 337 336 331 324 313 303 290 279 270 263 255 247 239 238 226 233 227 234 234 234 220 216 219 218 211 213 209 210 214
336 339 342 342 341 336 332 326 317 297 282 269 261 253 244 235 231 217 225 226 226 229 225 211 215 216 214 215 207 208 212 211
341 345 345 348 346 345 343 338 329 311 291 268 253 244 238 232 228 214 215 225 225 228 212 217 212 219 210 213 210 205 208 211
345 349 351 350 351 356 352 348 347 341 318 260 246 239 235 228 223 215 215 220 224 223 211 212 210 211 208 209 202 207 205 210
353 357 355 354 355 360 357 358 6 2 9 214 235 221 222 220 217 214 216 220 213 202 204 200 208 207 214 204 200 202 202 200
354 359 358 359 3 5 5 11 18 17 34 90 147 179 194 207 214 211 216 203 201 206 199 193 205 211 204 202 193 189 195 192
358 0 8 5 14 13 19 25 22 23 37 67 88 122 167 178 184 191 195 198 192 177 170 164 165 178 168 181 178 178 178 180
3 6 15 12 20 20 19 28 32 37 43 51 60 91 108 122 135 145 165 149 151 155 154 148 153 171 165 178 173 162 166 173
6 14 19 20 25 27 22 32 37 42 48 47 59 80 78 85 96 106 112 108 127 128 122 129 130 143 157 153 150 161 159 167
8 16 20 23 28 31 28 33 41 47 50 58 67 71 76 84 87 93 98 99 101 108 105 108 116 125 131 145 150 155 154 144
10 17 21 26 31 31 32 34 41 46 51 58 64 69 73 78 83 85 88 89 89 99 98 99 99 106 111 119 125 136 136 137
10 14 21 27 31 36 33 34 41 43 50 56 63 64 68 71 73 76 82 87 86 86 86 90 96 98 102 105 108 109 116 117
4 15 19 25 31 37 41 40 43 45 47 51 56 61 63 67 70 71 74 76 79 79 81 87 89 89 90 94 99 101 103 105
1 10 18 21 26 33 39 47 49 52 53 51 51 54 58 60 60 68 65 69 77 78 76 76 76 74 80 85 91 97 106 117
356 5 13 21 23 27 36 41 48 51 52 54 56 55 58 60 64 66 66 68 70 71 71 76 79 81 82 85 87 90 96 115
342 359 7 12 20 27 29 37 41 48 51 53 55 58 58 60 62 65 69 72 75 75 78 76 78 77 82 88 90 91 97 97
316 342 0 10 14 18 24 30 35 40 47 49 51 54 60 60 61 65 67 68 70 73 76 84 84 81 81 82 92 92 85 82
277 313 341 358 9 14 18 20 24 32 38 41 43 46 47 50 53 55 56 60 67 73 74 73 77 80 84 84 80 80 87 89
Wind_Speed_850mb
75 74 73 71 71 71 71 76 81 82 79 84 82 85 91 88 88 87 84 91 85 74 71 88 98 92 90 88 89 92 85 81
72 73 75 73 73 73 72 70 72 74 78 82 83 86 91 90 90 83 83 87 94 89 77 95 93 95 92 94 96 87 81 81
75 77 82 82 80 77 72 67 63 66 72 79 81 81 81 85 90 82 86 85 88 84 83 97 97 101 97 96 101 91 86 84
75 78 83 88 86 82 74 69 65 59 62 69 78 80 84 85 92 95 72 95 88 82 87 99 112 107 106 106 93 94 83 83
76 80 84 91 92 87 81 76 63 52 49 57 66 75 79 87 89 103 76 84 89 85 96 94 107 108 112 106 96 91 84 83
77 80 86 94 95 92 85 76 62 54 39 42 65 71 73 77 85 103 78 75 81 86 99 105 106 108 104 99 88 88 81 80
78 79 82 88 94 97 91 80 75 71 45 0 28 41 55 67 76 94 74 78 89 93 105 103 105 98 93 92 86 80 73 75
75 77 77 85 92 101 93 86 85 83 70 36 29 33 33 44 53 69 78 76 110 106 110 95 81 74 86 86 81 72 76 72
70 72 76 83 87 101 100 93 94 89 92 69 58 48 50 53 50 59 60 92 102 85 74 76 68 66 65 63 65 72 69 67
60 63 71 78 85 94 98 102 103 102 104 95 82 62 59 58 59 69 92 81 98 98 94 98 78 57 59 60 57 61 63 58
59 62 66 71 80 87 89 101 107 103 100 91 93 110 99 93 99 106 108 104 109 94 79 81 68 59 58 58 61 52 57 48
54 62 65 68 75 82 82 93 93 90 89 106 114 109 105 108 111 108 119 127 120 117 101 93 76 61 49 52 45 41 49 53
53 59 63 67 72 78 85 86 90 92 94 99 102 99 99 99 102 109 105 100 113 110 105 96 86 74 64 56 49 40 39 42
47 52 58 64 70 75 78 79 85 87 96 97 96 96 100 102 103 100 98 98 91 90 90 87 72 69 61 56 55 47 49 42
41 47 55 61 63 66 66 67 74 81 85 87 94 97 98 100 99 96 92 87 87 84 79 71 66 61 49 43 40 38 37 37
35 42 47 53 58 61 63 63 67 70 75 79 81 84 88 91 88 88 83 79 80 75 69 66 67 59 49 44 39 33 29 26
29 33 38 43 50 56 59 61 63 67 70 69 69 70 72 72 72 75 73 70 71 69 66 62 53 45 43 40 37 33 29 25
23 27 32 39 43 46 52 55 57 62 61 60 60 60 59 58 60 61 57 57 61 59 57 54 48 44 40 36 33 31 26 32
15 20 24 29 35 42 46 48 49 50 51 52 52 51 50 48 47 45 47 48 50 50 47 45 40 36 34 32 30 33 32 31
12 12 17 22 26 31 36 39 40 41 43 45 44 44 43 41 41 40 38 40 41 36 33 34 34 32 31 27 27 29 28 27
Wind_Direction_850mb
326 326 324 321 319 316 309 300 292 284 274 269 263 254 250 251 251 240 241 233 232 236 236 222 216 221 222 228 218 218 217 222
323 329 331 330 328 323 317 307 294 283 275 270 263 257 247 244 247 235 234 237 235 235 238 222 214 217 220 220 218 211 214 216
330 334 338 337 336 331 324 313 303 290 279 270 263 255 247 239 238 226 233 227 234 234 234 220 216 219 218 211 213 209 210 214
336 339 342 342 341 336 332 326 317 297 282 269 261 253 244 235 231 217 225 226 226 229 225 211 215 216 214 215 207 208 212 211
341 345 345 348 346 345 343 338 329 311 291 268 253 244 238 232 228 214 215 225 225 228 212 217 212 219 210 213 210 205 208 211
345 349 351 350 351 356 352 348 347 341 318 260 246 239 235 228 223 215 215 220 224 223 211 212 210 211 208 209 202 207 205 210
353 357 355 354 355 360 357 358 6 2 9 214 235 221 222 220 217 214 216 220 213 202 204 200 208 207 214 204 200 202 202 200
354 359 358 359 3 5 5 11 18 17 34 90 147 179 194 207 214 211 216 203 201 206 199 193 205 211 204 202 193 189 195 192
358 0 8 5 14 13 19 25 22 23 37 67 88 122 167 178 184 191 195 198 192 177 170 164 165 178 168 181 178 178 178 180
3 6 15 12 20 20 19 28 32 37 43 51 60 91 108 122 135 145 165 149 151 155 154 148 153 171 165 178 173 162 166 173
6 14 19 20 25 27 22 32 37 42 48 47 59 80 78 85 96 106 112 108 127 128 122 129 130 143 157 153 150 161 159 167
8 16 20 23 28 31 28 33 41 47 50 58 67 71 76 84 87 93 98 99 101 108 105 108 116 125 131 145 150 155 154 144
10 17 21 26 31 31 32 34 41 46 51 58 64 69 73 78 83 85 88 89 89 99 98 99 99 106 111 119 125 136 136 137
10 14 21 27 31 36 33 34 41 43 50 56 63 64 68 71 73 76 82 87 86 86 86 90 96 98 102 105 108 109 116 117
4 15 19 25 31 37 41 40 43 45 47 51 56 61 63 67 70 71 74 76 79 79 81 87 89 89 90 94 99 101 103 105
1 10 18 21 26 33 39 47 49 52 53 51 51 54 58 60 60 68 65 69 77 78 76 76 76 74 80 85 91 97 106 117
356 5 13 21 23 27 36 41 48 51 52 54 56 55 58 60 64 66 66 68 70 71 71 76 79 81 82 85 87 90 96 115
342 359 7 12 20 27 29 37 41 48 51 53 55 58 58 60 62 65 69 72 75 75 78 76 78 77 82 88 90 91 97 97
316 342 0 10 14 18 24 30 35 40 47 49 51 54 60 60 61 65 67 68 70 73 76 84 84 81 81 82 92 92 85 82
277 313 341 358 9 14 18 20 24 32 38 41 43 46 47 50 53 55 56 60 67 73 74 73 77 80 84 84 80 80 87 89